Time,TemperatureF,DewpointF,PressureIn,WindDirection,WindDirectionDegrees,WindSpeedMPH,WindSpeedGustMPH,Humidity,HourlyPrecipIn,Conditions,Clouds,dailyrainin,SoftwareType,DateUTC
2013-01-08 00:00:00,33.5,29.8,30.36,East,80,0.0,0.0,86,0.00,,---,0.00,VWS V14.01,2013-01-08 05:00:00,
2013-01-08 00:30:00,32.9,29.2,30.35,East,80,0.0,0.0,86,0.00,,---,0.00,VWS V14.01,2013-01-08 05:30:00,
2013-01-08 01:00:00,32.8,29.4,30.34,East,80,0.0,0.0,87,0.00,,---,0.00,VWS V14.01,2013-01-08 06:00:00,
2013-01-08 01:30:00,33.2,30.0,30.35,East,80,0.0,0.0,88,0.00,,---,0.00,VWS V14.01,2013-01-08 06:30:00,
2013-01-08 02:00:00,33.1,29.7,30.35,East,80,0.0,0.0,87,0.00,,---,0.00,VWS V14.01,2013-01-08 07:00:00,
2013-01-08 02:30:00,32.7,29.3,30.35,East,80,0.0,0.0,87,0.00,,---,0.00,VWS V14.01,2013-01-08 07:30:00,
2013-01-08 03:00:00,31.9,28.5,30.35,East,80,0.0,0.0,87,0.00,,---,0.00,VWS V14.01,2013-01-08 08:00:00,
2013-01-08 03:30:00,31.0,27.6,30.34,East,80,0.0,0.0,87,0.00,,---,0.00,VWS V14.01,2013-01-08 08:30:00,
2013-01-08 04:00:00,30.4,27.5,30.34,East,80,0.0,0.0,89,0.00,,---,0.00,VWS V14.01,2013-01-08 09:00:00,
2013-01-08 04:30:00,30.3,27.5,30.34,East,80,0.0,0.0,89,0.00,,---,0.00,VWS V14.01,2013-01-08 09:30:00,
2013-01-08 05:00:00,30.3,27.7,30.34,East,80,0.0,0.0,90,0.00,,---,0.00,VWS V14.01,2013-01-08 10:00:00,
2013-01-08 05:30:00,30.7,28.4,30.34,East,80,0.0,0.0,91,0.00,,---,0.00,VWS V14.01,2013-01-08 10:30:00,
2013-01-08 06:00:00,31.3,29.2,30.34,East,80,0.0,0.0,92,0.00,,---,0.00,VWS V14.01,2013-01-08 11:00:00,
2013-01-08 06:30:00,32.2,30.1,30.34,East,80,0.0,0.0,92,0.00,,---,0.00,VWS V14.01,2013-01-08 11:30:00,
2013-01-08 07:00:00,33.1,31.0,30.34,East,80,0.0,0.0,92,0.00,,---,0.00,VWS V14.01,2013-01-08 12:00:00,
2013-01-08 07:30:00,34.4,32.3,30.35,East,80,0.0,0.0,92,0.00,,---,0.00,VWS V14.01,2013-01-08 12:30:00,
2013-01-08 08:00:00,35.6,33.5,30.36,East,80,0.0,0.0,92,0.00,,---,0.00,VWS V14.01,2013-01-08 13:00:00,
2013-01-08 08:30:00,36.3,33.4,30.36,East,80,0.0,0.0,89,0.00,,---,0.00,VWS V14.01,2013-01-08 13:30:00,
2013-01-08 09:00:00,37.3,33.2,30.36,East,80,0.0,0.0,85,0.00,,---,0.00,VWS V14.01,2013-01-08 14:00:00,
2013-01-08 09:30:00,37.9,32.9,30.38,East,80,0.0,0.0,82,0.00,,---,0.00,VWS V14.01,2013-01-08 14:30:00,
2013-01-08 10:00:00,39.2,32.6,30.39,East,80,0.0,0.0,77,0.00,,---,0.00,VWS V14.01,2013-01-08 15:00:00,
2013-01-08 10:30:00,40.5,33.2,30.39,East,80,0.0,0.0,75,0.00,,---,0.00,VWS V14.01,2013-01-08 15:30:00,
2013-01-08 11:00:00,41.2,31.8,30.39,East,80,0.0,0.0,69,0.00,,---,0.00,VWS V14.01,2013-01-08 16:00:00,
2013-01-08 11:30:00,43.1,32.2,30.39,East,80,0.0,0.0,65,0.00,,---,0.00,VWS V14.01,2013-01-08 16:30:00,
2013-01-08 12:00:00,44.3,32.1,30.39,East,80,0.0,0.0,62,0.00,,---,0.00,VWS V14.01,2013-01-08 17:00:00,
2013-01-08 12:30:00,45.7,32.2,30.37,East,80,0.0,0.0,59,0.00,,---,0.00,VWS V14.01,2013-01-08 17:30:00,
2013-01-08 13:00:00,47.4,33.0,30.35,North,0,0.0,0.0,57,0.00,,---,0.00,VWS V14.01,2013-01-08 18:00:00,
2013-01-08 13:30:00,48.8,32.9,30.34,North,0,0.0,0.0,54,0.00,,---,0.00,VWS V14.01,2013-01-08 18:30:00,
2013-01-08 14:00:00,49.9,33.0,30.33,North,0,0.0,0.0,52,0.00,,---,0.00,VWS V14.01,2013-01-08 19:00:00,
2013-01-08 14:30:00,52.2,33.6,30.32,North,0,0.0,0.0,49,0.00,,---,0.00,VWS V14.01,2013-01-08 19:30:00,
2013-01-08 14:33:00,52.2,33.6,30.32,North,0,0.0,0.0,49,0.00,,---,0.00,VWS V14.01,2013-01-08 19:33:00,
2013-01-08 14:38:00,53.6,33.3,30.31,East,80,0.0,0.0,46,0.00,,---,0.00,VWS V14.01,2013-01-08 19:38:00,
2013-01-08 14:43:00,53.8,34.1,30.31,East,80,0.0,0.0,47,0.00,,---,0.00,VWS V14.01,2013-01-08 19:43:00,
2013-01-08 14:48:00,54.2,34.4,30.31,East,80,0.0,0.0,47,0.00,,---,0.00,VWS V14.01,2013-01-08 19:48:00,
2013-01-08 14:53:00,54.5,34.2,30.31,East,80,0.0,0.0,46,0.00,,---,0.00,VWS V14.01,2013-01-08 19:53:00,
2013-01-08 14:58:00,54.5,33.6,30.31,East,80,0.0,0.0,45,0.00,,---,0.00,VWS V14.01,2013-01-08 19:58:00,
2013-01-08 15:03:00,54.5,33.6,30.31,East,80,0.0,0.0,45,0.00,,---,0.00,VWS V14.01,2013-01-08 20:03:00,
2013-01-08 15:08:00,54.7,34.3,30.31,East,80,0.0,0.0,46,0.00,,---,0.00,VWS V14.01,2013-01-08 20:08:00,
2013-01-08 15:13:00,54.5,34.2,30.31,East,80,0.0,0.0,46,0.00,,---,0.00,VWS V14.01,2013-01-08 20:13:00,
2013-01-08 15:18:00,54.7,33.8,30.31,East,80,0.0,0.0,45,0.00,,---,0.00,VWS V14.01,2013-01-08 20:18:00,
2013-01-08 15:23:00,55.0,34.1,30.31,East,80,0.0,0.0,45,0.00,,---,0.00,VWS V14.01,2013-01-08 20:23:00,
2013-01-08 15:28:00,55.0,34.6,30.31,East,80,0.0,0.0,46,0.00,,---,0.00,VWS V14.01,2013-01-08 20:28:00,
2013-01-08 15:30:00,53.6,33.3,30.31,East,80,0.0,0.0,46,0.00,,---,0.00,VWS V14.01,2013-01-08 20:30:00,
2013-01-08 15:33:00,55.0,34.6,30.31,East,80,0.0,0.0,46,0.00,,---,0.00,VWS V14.01,2013-01-08 20:33:00,
2013-01-08 15:38:00,55.1,35.2,30.31,East,80,0.0,0.0,47,0.00,,---,0.00,VWS V14.01,2013-01-08 20:38:00,
2013-01-08 15:43:00,55.1,34.7,30.30,East,80,0.0,0.0,46,0.00,,---,0.00,VWS V14.01,2013-01-08 20:43:00,
2013-01-08 15:48:00,55.3,35.4,30.30,East,80,0.0,0.0,47,0.00,,---,0.00,VWS V14.01,2013-01-08 20:48:00,
2013-01-08 15:53:00,55.3,35.4,30.30,East,80,0.0,0.0,47,0.00,,---,0.00,VWS V14.01,2013-01-08 20:53:00,
2013-01-08 15:58:00,55.3,36.0,30.30,East,80,0.0,0.0,48,0.00,,---,0.00,VWS V14.01,2013-01-08 20:58:00,
2013-01-08 16:00:00,54.7,34.3,30.31,East,80,0.0,0.0,46,0.00,,---,0.00,VWS V14.01,2013-01-08 21:00:00,
2013-01-08 16:03:00,55.3,36.0,30.30,East,80,0.0,0.0,48,0.00,,---,0.00,VWS V14.01,2013-01-08 21:03:00,
2013-01-08 16:08:00,55.3,35.4,30.30,East,80,0.0,0.0,47,0.00,,---,0.00,VWS V14.01,2013-01-08 21:08:00,
2013-01-08 16:13:00,55.3,36.0,30.30,East,80,0.0,0.0,48,0.00,,---,0.00,VWS V14.01,2013-01-08 21:13:00,
2013-01-08 16:18:00,55.1,36.3,30.30,East,80,0.0,0.0,49,0.00,,---,0.00,VWS V14.01,2013-01-08 21:18:00,
2013-01-08 16:23:00,55.1,36.3,30.30,East,80,0.0,0.0,49,0.00,,---,0.00,VWS V14.01,2013-01-08 21:23:00,
2013-01-08 16:28:00,55.1,36.3,30.31,East,80,0.0,0.0,49,0.00,,---,0.00,VWS V14.01,2013-01-08 21:28:00,
2013-01-08 16:30:00,55.1,34.7,30.30,East,80,0.0,0.0,46,0.00,,---,0.00,VWS V14.01,2013-01-08 21:30:00,
2013-01-08 16:33:00,55.1,36.3,30.31,East,80,0.0,0.0,49,0.00,,---,0.00,VWS V14.01,2013-01-08 21:33:00,
2013-01-08 16:38:00,55.3,36.5,30.31,East,80,0.0,0.0,49,0.00,,---,0.00,VWS V14.01,2013-01-08 21:38:00,
2013-01-08 16:43:00,55.4,37.6,30.31,East,80,0.0,0.0,51,0.00,,---,0.00,VWS V14.01,2013-01-08 21:43:00,
2013-01-08 16:48:00,55.6,38.3,30.31,East,80,0.0,0.0,52,0.00,,---,0.00,VWS V14.01,2013-01-08 21:48:00,
2013-01-08 16:53:00,55.3,38.5,30.31,East,80,0.0,0.0,53,0.00,,---,0.00,VWS V14.01,2013-01-08 21:53:00,
2013-01-08 16:58:00,55.1,38.8,30.32,East,80,0.0,0.0,54,0.00,,---,0.00,VWS V14.01,2013-01-08 21:58:00,
2013-01-08 17:00:00,55.3,36.0,30.30,East,80,0.0,0.0,48,0.00,,---,0.00,VWS V14.01,2013-01-08 22:00:00,
2013-01-08 17:03:00,54.8,39.0,30.32,East,80,0.0,0.0,55,0.00,,---,0.00,VWS V14.01,2013-01-08 22:03:00,
2013-01-08 17:08:00,54.5,38.7,30.32,East,80,0.0,0.0,55,0.00,,---,0.00,VWS V14.01,2013-01-08 22:08:00,
2013-01-08 17:13:00,54.2,38.9,30.32,East,80,0.0,0.0,56,0.00,,---,0.00,VWS V14.01,2013-01-08 22:13:00,
2013-01-08 17:18:00,53.8,38.9,30.32,East,80,0.0,0.0,57,0.00,,---,0.00,VWS V14.01,2013-01-08 22:18:00,
2013-01-08 17:23:00,53.5,38.2,30.32,East,80,0.0,0.0,56,0.00,,---,0.00,VWS V14.01,2013-01-08 22:23:00,
2013-01-08 17:28:00,53.2,38.8,30.33,East,80,0.0,0.0,58,0.00,,---,0.00,VWS V14.01,2013-01-08 22:28:00,
2013-01-08 17:30:00,55.4,37.6,30.31,East,80,0.0,0.0,51,0.00,,---,0.00,VWS V14.01,2013-01-08 22:30:00,
2013-01-08 17:33:00,52.8,38.9,30.33,East,80,0.0,0.0,59,0.00,,---,0.00,VWS V14.01,2013-01-08 22:33:00,
2013-01-08 17:38:00,52.5,38.6,30.33,East,80,0.0,0.0,59,0.00,,---,0.00,VWS V14.01,2013-01-08 22:38:00,
2013-01-08 17:43:00,52.2,38.3,30.32,East,80,0.0,0.0,59,0.00,,---,0.00,VWS V14.01,2013-01-08 22:43:00,
2013-01-08 17:48:00,52.0,39.0,30.32,East,80,0.0,0.0,61,0.00,,---,0.00,VWS V14.01,2013-01-08 22:48:00,
2013-01-08 17:53:00,51.6,38.6,30.32,East,80,0.0,0.0,61,0.00,,---,0.00,VWS V14.01,2013-01-08 22:53:00,
2013-01-08 17:58:00,51.3,38.7,30.33,East,80,0.0,0.0,62,0.00,,---,0.00,VWS V14.01,2013-01-08 22:58:00,
2013-01-08 18:00:00,54.4,39.0,30.32,East,80,0.0,0.0,56,0.00,,---,0.00,VWS V14.01,2013-01-08 23:00:00,
2013-01-08 18:03:00,51.1,38.5,30.33,East,80,0.0,0.0,62,0.00,,---,0.00,VWS V14.01,2013-01-08 23:03:00,
2013-01-08 18:08:00,50.8,38.7,30.33,East,80,0.0,0.0,63,0.00,,---,0.00,VWS V14.01,2013-01-08 23:08:00,
2013-01-08 18:13:00,50.7,39.0,30.32,East,80,0.0,0.0,64,0.00,,---,0.00,VWS V14.01,2013-01-08 23:13:00,
2013-01-08 18:18:00,50.4,39.1,30.32,East,80,0.0,0.0,65,0.00,,---,0.00,VWS V14.01,2013-01-08 23:18:00,
2013-01-08 18:23:00,50.1,38.4,30.32,East,80,0.0,0.0,64,0.00,,---,0.00,VWS V14.01,2013-01-08 23:23:00,
2013-01-08 18:28:00,49.8,38.5,30.32,East,80,0.0,0.0,65,0.00,,---,0.00,VWS V14.01,2013-01-08 23:28:00,
2013-01-08 18:30:00,52.3,38.4,30.32,East,80,0.0,0.0,59,0.00,,---,0.00,VWS V14.01,2013-01-08 23:30:00,
2013-01-08 18:33:00,49.8,38.5,30.32,East,80,0.0,0.0,65,0.00,,---,0.00,VWS V14.01,2013-01-08 23:33:00,
2013-01-08 18:38:00,49.6,38.7,30.32,East,80,0.0,0.0,66,0.00,,---,0.00,VWS V14.01,2013-01-08 23:38:00,
2013-01-08 18:43:00,49.8,38.9,30.31,East,80,0.0,0.0,66,0.00,,---,0.00,VWS V14.01,2013-01-08 23:43:00,
2013-01-08 18:48:00,49.6,38.7,30.31,East,80,0.0,0.0,66,0.00,,---,0.00,VWS V14.01,2013-01-08 23:48:00,
2013-01-08 18:53:00,49.5,38.6,30.31,East,80,0.0,0.0,66,0.00,,---,0.00,VWS V14.01,2013-01-08 23:53:00,
2013-01-08 18:58:00,49.2,38.7,30.32,East,80,0.0,0.0,67,0.00,,---,0.00,VWS V14.01,2013-01-08 23:58:00,
2013-01-08 19:00:00,50.7,39.0,30.32,East,80,0.0,0.0,64,0.00,,---,0.00,VWS V14.01,2013-01-09 00:00:00,
2013-01-08 19:03:00,48.8,38.7,30.32,East,80,0.0,0.0,68,0.00,,---,0.00,VWS V14.01,2013-01-09 00:03:00,
2013-01-08 19:08:00,48.6,38.5,30.32,East,80,0.0,0.0,68,0.00,,---,0.00,VWS V14.01,2013-01-09 00:08:00,
2013-01-08 19:13:00,48.3,38.6,30.32,East,80,0.0,0.0,69,0.00,,---,0.00,VWS V14.01,2013-01-09 00:13:00,
2013-01-08 19:18:00,47.9,39.0,30.32,East,80,0.0,0.0,71,0.00,,---,0.00,VWS V14.01,2013-01-09 00:18:00,
2013-01-08 19:23:00,47.6,39.0,30.32,East,80,0.0,0.0,72,0.00,,---,0.00,VWS V14.01,2013-01-09 00:23:00,
2013-01-08 19:28:00,47.4,38.8,30.32,East,80,0.0,0.0,72,0.00,,---,0.00,VWS V14.01,2013-01-09 00:28:00,
2013-01-08 19:30:00,49.8,38.9,30.31,East,80,0.0,0.0,66,0.00,,---,0.00,VWS V14.01,2013-01-09 00:30:00,
2013-01-08 19:33:00,47.3,38.7,30.32,East,80,0.0,0.0,72,0.00,,---,0.00,VWS V14.01,2013-01-09 00:33:00,
2013-01-08 19:38:00,47.0,38.5,30.32,East,80,0.0,0.0,72,0.00,,---,0.00,VWS V14.01,2013-01-09 00:38:00,
2013-01-08 19:43:00,46.8,38.3,30.32,East,80,0.0,0.0,72,0.00,,---,0.00,VWS V14.01,2013-01-09 00:43:00,
2013-01-08 19:48:00,46.5,38.3,30.32,East,80,0.0,0.0,73,0.00,,---,0.00,VWS V14.01,2013-01-09 00:48:00,
2013-01-08 19:53:00,46.2,38.4,30.32,East,80,0.0,0.0,74,0.00,,---,0.00,VWS V14.01,2013-01-09 00:53:00,
2013-01-08 19:58:00,46.1,38.6,30.33,East,80,0.0,0.0,75,0.00,,---,0.00,VWS V14.01,2013-01-09 00:58:00,
2013-01-08 20:00:00,48.3,38.6,30.32,East,80,0.0,0.0,69,0.00,,---,0.00,VWS V14.01,2013-01-09 01:00:00,
2013-01-08 20:03:00,45.7,38.2,30.33,East,80,0.0,0.0,75,0.00,,---,0.00,VWS V14.01,2013-01-09 01:03:00,
2013-01-08 20:08:00,45.4,38.3,30.33,East,80,0.0,0.0,76,0.00,,---,0.00,VWS V14.01,2013-01-09 01:08:00,
2013-01-08 20:13:00,45.2,38.1,30.33,East,80,0.0,0.0,76,0.00,,---,0.00,VWS V14.01,2013-01-09 01:13:00,
2013-01-08 20:18:00,45.1,38.3,30.33,East,80,0.0,0.0,77,0.00,,---,0.00,VWS V14.01,2013-01-09 01:18:00,
2013-01-08 20:23:00,44.9,38.1,30.33,East,80,0.0,0.0,77,0.00,,---,0.00,VWS V14.01,2013-01-09 01:23:00,
2013-01-08 20:28:00,44.6,37.8,30.33,East,80,0.0,0.0,77,0.00,,---,0.00,VWS V14.01,2013-01-09 01:28:00,
2013-01-08 20:30:00,46.8,38.3,30.32,East,80,0.0,0.0,72,0.00,,---,0.00,VWS V14.01,2013-01-09 01:30:00,
2013-01-08 20:33:00,44.6,37.8,30.33,East,80,0.0,0.0,77,0.00,,---,0.00,VWS V14.01,2013-01-09 01:33:00,
2013-01-08 20:38:00,44.5,38.1,30.33,East,80,0.0,0.0,78,0.00,,---,0.00,VWS V14.01,2013-01-09 01:38:00,
2013-01-08 20:43:00,44.3,37.9,30.33,East,80,0.0,0.0,78,0.00,,---,0.00,VWS V14.01,2013-01-09 01:43:00,
2013-01-08 20:48:00,44.2,38.1,30.33,East,80,0.0,0.0,79,0.00,,---,0.00,VWS V14.01,2013-01-09 01:48:00,
2013-01-08 20:53:00,44.2,38.4,30.33,East,80,0.0,0.0,80,0.00,,---,0.00,VWS V14.01,2013-01-09 01:53:00,
2013-01-08 20:58:00,44.3,38.2,30.32,East,80,0.0,0.0,79,0.00,,---,0.00,VWS V14.01,2013-01-09 01:58:00,
2013-01-08 21:00:00,45.2,38.1,30.33,East,80,0.0,0.0,76,0.00,,---,0.00,VWS V14.01,2013-01-09 02:00:00,
2013-01-08 21:03:00,44.6,38.5,30.32,East,80,0.0,0.0,79,0.00,,---,0.00,VWS V14.01,2013-01-09 02:03:00,
2013-01-08 21:08:00,44.9,38.5,30.32,East,80,0.0,0.0,78,0.00,,---,0.00,VWS V14.01,2013-01-09 02:08:00,
2013-01-08 21:13:00,45.1,38.7,30.33,East,80,0.0,0.0,78,0.00,,---,0.00,VWS V14.01,2013-01-09 02:13:00,
2013-01-08 21:18:00,45.1,38.3,30.33,East,80,0.0,0.0,77,0.00,,---,0.00,VWS V14.01,2013-01-09 02:18:00,
2013-01-08 21:23:00,44.9,38.5,30.33,East,80,0.0,0.0,78,0.00,,---,0.00,VWS V14.01,2013-01-09 02:23:00,
2013-01-08 21:28:00,44.9,38.5,30.33,East,80,0.0,0.0,78,0.00,,---,0.00,VWS V14.01,2013-01-09 02:28:00,
2013-01-08 21:30:00,44.5,38.1,30.33,East,80,0.0,0.0,78,0.00,,---,0.00,VWS V14.01,2013-01-09 02:30:00,
2013-01-08 21:33:00,44.8,38.4,30.33,East,80,0.0,0.0,78,0.00,,---,0.00,VWS V14.01,2013-01-09 02:33:00,
2013-01-08 21:38:00,44.6,38.5,30.33,East,80,0.0,0.0,79,0.00,,---,0.00,VWS V14.01,2013-01-09 02:38:00,
2013-01-08 21:43:00,44.5,38.4,30.34,East,80,0.0,0.0,79,0.00,,---,0.00,VWS V14.01,2013-01-09 02:43:00,
2013-01-08 21:48:00,44.3,38.2,30.34,East,80,0.0,0.0,79,0.00,,---,0.00,VWS V14.01,2013-01-09 02:48:00,
2013-01-08 21:53:00,44.2,38.4,30.34,East,80,0.0,0.0,80,0.00,,---,0.00,VWS V14.01,2013-01-09 02:53:00,
2013-01-08 21:58:00,44.1,38.7,30.33,East,80,0.0,0.0,81,0.00,,---,0.00,VWS V14.01,2013-01-09 02:58:00,
2013-01-08 22:00:00,45.1,38.7,30.33,East,80,0.0,0.0,78,0.00,,---,0.00,VWS V14.01,2013-01-09 03:00:00,
2013-01-08 22:03:00,43.9,38.5,30.33,East,80,0.0,0.0,81,0.00,,---,0.00,VWS V14.01,2013-01-09 03:03:00,
2013-01-08 22:08:00,43.9,38.5,30.33,East,80,0.0,0.0,81,0.00,,---,0.00,VWS V14.01,2013-01-09 03:08:00,
2013-01-08 22:13:00,43.9,38.5,30.32,East,80,0.0,0.0,81,0.00,,---,0.00,VWS V14.01,2013-01-09 03:13:00,
2013-01-08 22:18:00,43.8,38.4,30.32,East,80,0.0,0.0,81,0.00,,---,0.00,VWS V14.01,2013-01-09 03:18:00,
2013-01-08 22:23:00,43.8,38.4,30.32,East,80,0.0,0.0,81,0.00,,---,0.00,VWS V14.01,2013-01-09 03:23:00,
2013-01-08 22:28:00,43.6,38.2,30.32,East,80,0.0,0.0,81,0.00,,---,0.00,VWS V14.01,2013-01-09 03:28:00,
2013-01-08 22:30:00,44.6,38.5,30.34,East,80,0.0,0.0,79,0.00,,---,0.00,VWS V14.01,2013-01-09 03:30:00,
2013-01-08 22:33:00,43.6,38.5,30.32,East,80,0.0,0.0,82,0.00,,---,0.00,VWS V14.01,2013-01-09 03:33:00,
2013-01-08 22:38:00,43.6,38.5,30.32,East,80,0.0,0.0,82,0.00,,---,0.00,VWS V14.01,2013-01-09 03:38:00,
2013-01-08 22:43:00,43.5,38.4,30.32,East,80,0.0,0.0,82,0.00,,---,0.00,VWS V14.01,2013-01-09 03:43:00,
2013-01-08 22:48:00,43.5,38.4,30.32,East,80,0.0,0.0,82,0.00,,---,0.00,VWS V14.01,2013-01-09 03:48:00,
2013-01-08 22:53:00,43.5,38.7,30.32,East,80,0.0,0.0,83,0.00,,---,0.00,VWS V14.01,2013-01-09 03:53:00,
2013-01-08 22:58:00,43.5,38.7,30.32,East,80,0.0,0.0,83,0.00,,---,0.00,VWS V14.01,2013-01-09 03:58:00,
2013-01-08 23:00:00,43.9,38.5,30.32,East,80,0.0,0.0,81,0.00,,---,0.00,VWS V14.01,2013-01-09 04:00:00,
2013-01-08 23:03:00,43.5,38.7,30.32,East,80,0.0,0.0,83,0.00,,---,0.00,VWS V14.01,2013-01-09 04:03:00,
2013-01-08 23:08:00,43.5,39.0,30.32,East,80,0.0,0.0,84,0.00,,---,0.00,VWS V14.01,2013-01-09 04:08:00,
2013-01-08 23:13:00,43.6,39.1,30.32,East,80,0.0,0.0,84,0.00,,---,0.00,VWS V14.01,2013-01-09 04:13:00,
2013-01-08 23:18:00,43.6,39.1,30.32,East,80,0.0,0.0,84,0.00,,---,0.00,VWS V14.01,2013-01-09 04:18:00,
2013-01-08 23:23:00,43.6,39.1,30.32,East,80,0.0,0.0,84,0.00,,---,0.00,VWS V14.01,2013-01-09 04:23:00,
2013-01-08 23:28:00,43.6,39.1,30.32,East,80,0.0,0.0,84,0.00,,---,0.00,VWS V14.01,2013-01-09 04:28:00,
2013-01-08 23:30:00,43.5,38.4,30.32,East,80,0.0,0.0,82,0.00,,---,0.00,VWS V14.01,2013-01-09 04:30:00,
2013-01-08 23:33:00,43.6,38.8,30.32,East,80,0.0,0.0,83,0.00,,---,0.00,VWS V14.01,2013-01-09 04:33:00,
2013-01-08 23:38:00,43.5,38.7,30.32,East,80,0.0,0.0,83,0.00,,---,0.00,VWS V14.01,2013-01-09 04:38:00,
2013-01-08 23:43:00,43.5,38.7,30.32,East,80,0.0,0.0,83,0.00,,---,0.00,VWS V14.01,2013-01-09 04:43:00,
2013-01-08 23:48:00,43.3,38.5,30.32,East,80,0.0,0.0,83,0.00,,---,0.00,VWS V14.01,2013-01-09 04:48:00,
2013-01-08 23:53:00,43.2,38.4,30.32,East,80,0.0,0.0,83,0.00,,---,0.00,VWS V14.01,2013-01-09 04:53:00,
2013-01-08 23:58:00,43.1,38.3,30.31,East,80,0.0,0.0,83,0.00,,---,0.00,VWS V14.01,2013-01-09 04:58:00,